Regional Weather Roundup
Issued by NWS Kansas City/Pleasant Hill, MO

Home | Current Version | Previous Version | Graphics & Text | Print | Product List | Glossary Off
Versions: 1 2 3 4 5 6 7 8 9 10 11 12 13 14 15 16 17 18 19 20 21 22 23 24 25 26 27 28 29 30 31 32 33 34 35 36 37 38 39 40 41 42 43 44 45 46 47 48 49 50

000
ASUS43 KEAX 211210
RWREAX

WEATHER ROUNDUP FOR EASTERN KANSAS AND NORTHWEST MISSOURI
NATIONAL WEATHER SERVICE KANSAS CITY/PLEASANT HILL MO
600 AM CST SAT JAN 21 2017

KSZ040-057-103>105-MOZ028-029-037-043-211300-
...KANSAS CITY METROPOLITAN AREA...

CITY           SKY/WX    TMP DP  RH WIND       PRES   REMARKS
K.C. INTL      FOG       42  40  92 W5        29.43S VSB 1/2
6HR MIN TEMP:  37; 6HR MAX TEMP:  42;

K.C. DOWNTOWN  FOG       41  40  96 SW7       29.47R VSB 1/2
6HR MIN TEMP:  37; 6HR MAX TEMP:  45;

LEES SUMMIT    CLOUDY    40  39  97 SW9       29.47R WCI  34
6HR MIN TEMP:  40; 6HR MAX TEMP:  45;

OLATHE - IXD   FOG       37  37 100 SW12      29.48R VSB 1/4 WCI  29
6HR MIN TEMP:  35; 6HR MAX TEMP:  41;

OLATHE - OJC   FOG       36  36 100 S8        29.48R VSB 1/4 WCI  30
6HR MIN TEMP:  35; 6HR MAX TEMP:  41;

LAWRENCE       CLOUDY    38  38 100 W7        29.47R FOG     WCI  33

$$

MOZ001>008-011>017-020>025-030>033-038>040-044>046-053-054-211300-
...NORTHERN AND CENTRAL MISSOURI...

CITY           SKY/WX    TMP DP  RH WIND       PRES   REMARKS
ST. JOSEPH     FOG       39  39 100 SW7       29.44R VSB 1/4 WCI  34
6HR MIN TEMP:  34; 6HR MAX TEMP:  39;

MOSBY          FOG       41  41 100 W3        29.45R VSB 1
WARRENSBURG    CLEAR     41  36  81 SW10      29.47R WCI  35
WHITEMAN AFB   CLEAR     43  43 100 SW13      29.47R
6HR MIN TEMP:  40; 6HR MAX TEMP:  48;

CLINTON        PTCLDY    45  37  76 SW8       29.51R
SEDALIA        CLEAR     48  38  68 SW10      29.49R
6HR MIN TEMP:  42; 6HR MAX TEMP:  52;

WARSAW         NOT AVBL
CHILLICOTHE      N/A     34  34 100 CALM      29.44R
6HR MIN TEMP:  33; 6HR MAX TEMP:  46;

KIRKSVILLE     CLEAR     41  38  89 S8        29.41R
6HR MIN TEMP:  36; 6HR MAX TEMP:  46;


$$

MOZ041-047>049-056>058-063>065-088>090-097-211300-
...EASTERN AND SOUTHERN MISSOURI...

CITY           SKY/WX    TMP DP  RH WIND       PRES   REMARKS
ST. LOUIS INTL PTCLDY    53  45  74 S6        29.53R
6HR MIN TEMP:  52; 6HR MAX TEMP:  54;

SPIRIT OF STL  CLEAR     53  45  74 S9        29.51R
COLUMBIA       CLEAR     50  40  68 S13       29.47R
JEFFERSON CITY CLEAR     51  39  63 S5        29.49R
ROLLA          CLEAR     50  43  77 S12       29.51R
OSAGE BEACH    CLEAR     48  39  71 S7        29.52R
SPRINGFIELD    CLEAR     46  37  71 S10       29.53S
BRANSON        PTCLDY    52  37  58 CALM      29.57R
JOPLIN         CLEAR     45  36  70 SW9       29.54R
WEST PLAINS    CLEAR     52  43  71 S6        29.58S

$$

IAZ060-094-KSZ022-034>040-054-083-096-NEZ052-066-093-211300-
...KANSAS...SOUTHEAST NEBRASKA AND IOWA...

CITY           SKY/WX    TMP DP  RH WIND       PRES   REMARKS
TOPEKA         FOG       33  30  88 CALM      29.46S VSB 1/4
6HR MIN TEMP:  33; 6HR MAX TEMP:  42;

MANHATTAN      CLEAR     37  35  92 SW7       29.47R WCI  32
EMPORIA        CLEAR     35  34  96 W7        29.46F WCI  29
CHANUTE        CLEAR     36  34  92 S7        29.51R WCI  30
WICHITA        CLEAR     34  32  92 N5        29.46F WCI  30
OMAHA          CLOUDY    41  38  89 S6        29.38S FOG
LINCOLN        FOG       36  36 100 S3        29.39F VSB 1
FALLS CITY     FOG       41  41 100 SW9       29.42R VSB 1
LAMONI         FOG       42  42 100 SW5       29.39F VSB 1/4
DES MOINES     DRZL/FOG  44  43  96 S7        29.39S VSB 1/4

$$




USA.gov is the U.S. government's official web portal to all federal, state and local government web resources and services.